,,PressureMeas_1m,,PRMeasQMR101_1,,RHStat155_1m_1,,SRMeasQMS101R_1m,,TAStat155_1m_1,,GenWind_1,,GenWind_1,
2019-10-10, 00:00:06,VALID,918.86,VALID,0.0,VALID,97.336,VALID,-0.007,VALID,20.885,INVALID,360.0,VALID,0.0,
2019-10-10, 00:01:06,VALID,918.84,VALID,0.0,VALID,97.356,VALID,0.018,VALID,20.891,INVALID,360.0,VALID,0.0,
2019-10-10, 00:02:06,VALID,918.816,VALID,0.0,VALID,97.416,VALID,-0.003,VALID,20.909,INVALID,360.0,VALID,0.0,
2019-10-10, 00:03:06,VALID,918.809,VALID,0.0,VALID,97.435,VALID,-0.011,VALID,20.929,INVALID,360.0,VALID,0.0,
2019-10-10, 00:04:06,VALID,918.785,VALID,0.0,VALID,97.34,VALID,-0.012,VALID,20.917,INVALID,360.0,VALID,0.0,
2019-10-10, 00:05:06,VALID,918.763,VALID,0.0,VALID,97.223,VALID,0.002,VALID,20.882,INVALID,360.0,VALID,0.0,
2019-10-10, 00:06:06,VALID,918.772,VALID,0.0,VALID,97.3,VALID,-0.003,VALID,20.87,INVALID,360.0,VALID,0.0,
2019-10-10, 00:07:06,VALID,918.751,VALID,0.0,VALID,97.281,VALID,-0.015,VALID,20.862,INVALID,360.0,VALID,0.0,
2019-10-10, 00:08:06,VALID,918.721,VALID,0.0,VALID,97.069,VALID,-0.005,VALID,20.813,INVALID,360.0,VALID,0.0,
2019-10-10, 00:09:06,VALID,918.727,VALID,0.0,VALID,97.14,VALID,-0.008,VALID,20.754,INVALID,360.0,VALID,0.0,
2019-10-10, 00:10:06,VALID,918.717,VALID,0.0,VALID,97.395,VALID,-0.003,VALID,20.716,INVALID,360.0,VALID,0.0,
2019-10-10, 00:11:06,VALID,918.717,VALID,0.0,VALID,97.578,VALID,0.005,VALID,20.688,INVALID,360.0,VALID,0.0,
2019-10-10, 00:12:06,VALID,918.717,VALID,0.0,VALID,97.67,VALID,-0.018,VALID,20.655,INVALID,360.0,VALID,0.0,
2019-10-10, 00:13:06,VALID,918.699,VALID,0.0,VALID,97.865,VALID,-0.003,VALID,20.657,INVALID,360.0,VALID,0.0,
2019-10-10, 00:14:06,VALID,918.692,VALID,0.0,VALID,97.945,VALID,-0.012,VALID,20.646,INVALID,360.0,VALID,0.0,
2019-10-10, 00:15:06,VALID,918.689,VALID,0.0,VALID,97.865,VALID,-0.021,VALID,20.62,INVALID,360.0,VALID,0.0,
2019-10-10, 00:16:06,VALID,918.688,VALID,0.0,VALID,97.854,VALID,-0.014,VALID,20.584,INVALID,360.0,VALID,0.0,
2019-10-10, 00:17:06,VALID,918.657,VALID,0.0,VALID,97.901,VALID,-0.013,VALID,20.563,INVALID,360.0,VALID,0.0,
2019-10-10, 00:18:06,VALID,918.645,VALID,0.0,VALID,98.113,VALID,-0.018,VALID,20.604,INVALID,360.0,VALID,0.0,
2019-10-10, 00:19:06,VALID,918.631,VALID,0.0,VALID,98.156,VALID,0.002,VALID,20.632,INVALID,360.0,VALID,0.0,
2019-10-10, 00:20:06,VALID,918.605,VALID,0.0,VALID,98.134,VALID,-0.011,VALID,20.651,INVALID,360.0,VALID,0.0,
2019-10-10, 00:21:06,VALID,918.603,VALID,0.0,VALID,98.045,VALID,0.005,VALID,20.657,INVALID,360.0,VALID,0.0,
2019-10-10, 00:22:06,VALID,918.608,VALID,0.0,VALID,98.009,VALID,0.017,VALID,20.675,INVALID,360.0,VALID,0.0,
2019-10-10, 00:23:06,VALID,918.613,VALID,0.0,VALID,97.964,VALID,0.008,VALID,20.693,INVALID,360.0,VALID,0.0,
2019-10-10, 00:24:06,VALID,918.61,VALID,0.0,VALID,97.892,VALID,0.01,VALID,20.703,INVALID,360.0,VALID,0.0,
2019-10-10, 00:25:06,VALID,918.604,VALID,0.0,VALID,97.808,VALID,-0.011,VALID,20.719,INVALID,360.0,VALID,0.0,
2019-10-10, 00:26:06,VALID,918.566,VALID,0.0,VALID,97.729,VALID,0.021,VALID,20.714,INVALID,360.0,VALID,0.0,
2019-10-10, 00:27:06,VALID,918.535,VALID,0.0,VALID,97.818,VALID,0.031,VALID,20.723,INVALID,360.0,VALID,0.0,
2019-10-10, 00:28:06,VALID,918.515,VALID,0.0,VALID,97.887,VALID,0.019,VALID,20.732,INVALID,360.0,VALID,0.0,
2019-10-10, 00:29:06,VALID,918.49,VALID,0.0,VALID,97.811,VALID,0.009,VALID,20.691,INVALID,360.0,VALID,0.0,
2019-10-10, 00:30:06,VALID,918.475,VALID,0.0,VALID,97.887,VALID,0.009,VALID,20.653,INVALID,360.0,VALID,0.0,
2019-10-10, 00:31:06,VALID,918.468,VALID,0.0,VALID,98.092,VALID,0.004,VALID,20.64,INVALID,360.0,VALID,0.0,
2019-10-10, 00:32:06,VALID,918.453,VALID,0.0,VALID,98.173,VALID,-0.002,VALID,20.615,INVALID,360.0,VALID,0.0,
2019-10-10, 00:33:06,VALID,918.465,VALID,0.0,VALID,98.325,VALID,0.005,VALID,20.648,INVALID,360.0,VALID,0.0,
2019-10-10, 00:34:06,VALID,918.451,VALID,0.0,VALID,98.365,VALID,0.003,VALID,20.659,INVALID,360.0,VALID,0.0,
2019-10-10, 00:35:06,VALID,918.441,VALID,0.0,VALID,98.305,VALID,-0.002,VALID,20.649,INVALID,360.0,VALID,0.0,
2019-10-10, 00:36:06,VALID,918.409,VALID,0.0,VALID,98.296,VALID,-0.004,VALID,20.667,INVALID,360.0,VALID,0.0,
2019-10-10, 00:37:06,VALID,918.403,VALID,0.0,VALID,98.247,VALID,-0.01,VALID,20.663,INVALID,360.0,VALID,0.0,
2019-10-10, 00:38:06,VALID,918.364,VALID,0.0,VALID,98.336,VALID,-0.015,VALID,20.675,INVALID,360.0,VALID,0.0,
2019-10-10, 00:39:06,VALID,918.335,VALID,0.0,VALID,98.451,VALID,-0.029,VALID,20.72,INVALID,360.0,VALID,0.0,
2019-10-10, 00:40:06,VALID,918.317,VALID,0.0,VALID,98.428,VALID,-0.012,VALID,20.765,INVALID,360.0,VALID,0.0,
2019-10-10, 00:41:06,VALID,918.306,VALID,0.0,VALID,98.315,VALID,0.004,VALID,20.765,INVALID,360.0,VALID,0.0,
2019-10-10, 00:42:06,VALID,918.275,VALID,0.0,VALID,98.278,VALID,-0.002,VALID,20.774,INVALID,360.0,VALID,0.0,
2019-10-10, 00:43:06,VALID,918.265,VALID,0.0,VALID,98.206,VALID,0.009,VALID,20.764,INVALID,360.0,VALID,0.0,
2019-10-10, 00:44:06,VALID,918.241,VALID,0.0,VALID,98.294,VALID,0.012,VALID,20.804,INVALID,360.0,VALID,0.0,
2019-10-10, 00:45:06,VALID,918.237,VALID,0.0,VALID,98.134,VALID,0.004,VALID,20.782,INVALID,360.0,VALID,0.0,
2019-10-10, 00:46:06,VALID,918.219,VALID,0.0,VALID,98.046,VALID,0.007,VALID,20.766,INVALID,360.0,VALID,0.0,
2019-10-10, 00:47:06,VALID,918.208,VALID,0.0,VALID,98.045,VALID,0.009,VALID,20.752,INVALID,360.0,VALID,0.0,
2019-10-10, 00:48:06,VALID,918.192,VALID,0.0,VALID,97.984,VALID,0.007,VALID,20.715,INVALID,360.0,VALID,0.0,
2019-10-10, 00:49:06,VALID,918.183,VALID,0.0,VALID,98.032,VALID,0.006,VALID,20.708,INVALID,360.0,VALID,0.0,
2019-10-10, 00:50:06,VALID,918.177,VALID,0.0,VALID,98.18,VALID,0.02,VALID,20.726,INVALID,360.0,VALID,0.0,
2019-10-10, 00:51:06,VALID,918.167,VALID,0.0,VALID,98.175,VALID,0.002,VALID,20.722,INVALID,360.0,VALID,0.0,
2019-10-10, 00:52:06,VALID,918.133,VALID,0.0,VALID,98.166,VALID,0.005,VALID,20.696,INVALID,360.0,VALID,0.0,
2019-10-10, 00:53:06,VALID,918.127,VALID,0.0,VALID,98.302,VALID,-0.0,VALID,20.719,INVALID,360.0,VALID,0.0,
2019-10-10, 00:54:06,VALID,918.117,VALID,0.0,VALID,98.283,VALID,0.022,VALID,20.707,VALID,345.0,VALID,0.0,
2019-10-10, 00:55:06,VALID,918.094,VALID,0.0,VALID,98.171,VALID,0.002,VALID,20.674,INVALID,360.0,VALID,0.0,
2019-10-10, 00:56:06,VALID,918.086,VALID,0.0,VALID,98.142,VALID,0.015,VALID,20.68,INVALID,360.0,VALID,0.0,
2019-10-10, 00:57:06,VALID,918.07,VALID,0.0,VALID,98.175,VALID,0.007,VALID,20.681,INVALID,360.0,VALID,0.0,
2019-10-10, 00:58:06,VALID,918.063,VALID,0.0,VALID,98.133,VALID,0.002,VALID,20.677,INVALID,360.0,VALID,0.0,
2019-10-10, 00:59:06,VALID,918.046,VALID,0.0,VALID,98.18,VALID,0.006,VALID,20.689,INVALID,360.0,VALID,0.0,
2019-10-10, 01:00:06,VALID,918.042,VALID,0.0,VALID,98.17,VALID,0.009,VALID,20.662,INVALID,360.0,VALID,0.0,
2019-10-10, 01:01:06,VALID,918.033,VALID,0.0,VALID,98.324,VALID,0.019,VALID,20.673,INVALID,360.0,VALID,0.0,
2019-10-10, 01:02:06,VALID,918.016,VALID,0.0,VALID,98.369,VALID,0.008,VALID,20.666,INVALID,360.0,VALID,0.225,
2019-10-10, 01:03:06,VALID,918.005,VALID,0.0,VALID,98.37,VALID,0.027,VALID,20.648,VALID,26.0,VALID,0.444,
2019-10-10, 01:04:06,VALID,917.99,VALID,0.0,VALID,98.418,VALID,0.018,VALID,20.644,VALID,13.0,VALID,0.589,
2019-10-10, 01:05:06,VALID,917.978,VALID,0.0,VALID,98.432,VALID,-0.001,VALID,20.652,VALID,15.0,VALID,0.475,
2019-10-10, 01:06:06,VALID,917.983,VALID,0.0,VALID,98.372,VALID,0.028,VALID,20.625,VALID,348.0,VALID,0.322,
2019-10-10, 01:07:06,VALID,917.961,VALID,0.0,VALID,98.358,VALID,0.047,VALID,20.627,INVALID,360.0,VALID,0.005,
2019-10-10, 01:08:06,VALID,917.943,VALID,0.0,VALID,98.354,VALID,0.032,VALID,20.625,INVALID,360.0,VALID,0.145,
2019-10-10, 01:09:06,VALID,917.939,VALID,0.0,VALID,98.2,VALID,0.027,VALID,20.588,VALID,6.0,VALID,0.167,
2019-10-10, 01:10:06,VALID,917.928,VALID,0.0,VALID,98.037,VALID,0.029,VALID,20.532,VALID,359.0,VALID,0.421,
2019-10-10, 01:11:06,VALID,917.916,VALID,0.0,VALID,97.926,VALID,0.026,VALID,20.507,VALID,3.0,VALID,0.22,
2019-10-10, 01:12:06,VALID,917.92,VALID,0.0,VALID,98.005,VALID,0.024,VALID,20.525,VALID,28.0,VALID,0.361,
2019-10-10, 01:13:06,VALID,917.909,VALID,0.0,VALID,98.125,VALID,0.031,VALID,20.564,VALID,11.0,VALID,0.19,
2019-10-10, 01:14:06,VALID,917.898,VALID,0.0,VALID,98.09,VALID,0.015,VALID,20.557,VALID,356.0,VALID,0.284,
2019-10-10, 01:15:06,VALID,917.862,VALID,0.0,VALID,97.962,VALID,0.02,VALID,20.523,VALID,1.0,VALID,0.328,
2019-10-10, 01:16:06,VALID,917.849,VALID,0.0,VALID,97.958,VALID,0.025,VALID,20.485,VALID,11.0,VALID,0.442,
2019-10-10, 01:17:06,VALID,917.836,VALID,0.0,VALID,97.939,VALID,0.023,VALID,20.451,VALID,25.0,VALID,0.479,
2019-10-10, 01:18:06,VALID,917.829,VALID,0.0,VALID,97.875,VALID,0.029,VALID,20.405,VALID,25.0,VALID,0.325,
2019-10-10, 01:19:06,VALID,917.81,VALID,0.0,VALID,97.935,VALID,0.032,VALID,20.373,VALID,6.0,VALID,0.428,
2019-10-10, 01:20:06,VALID,917.802,VALID,0.0,VALID,98.033,VALID,0.023,VALID,20.355,VALID,355.0,VALID,0.482,
2019-10-10, 01:21:06,VALID,917.8,VALID,0.0,VALID,98.139,VALID,0.008,VALID,20.364,VALID,355.0,VALID,0.261,
2019-10-10, 01:22:06,VALID,917.777,VALID,0.0,VALID,98.146,VALID,0.014,VALID,20.356,VALID,354.0,VALID,0.173,
2019-10-10, 01:23:06,VALID,917.763,VALID,0.0,VALID,98.188,VALID,0.002,VALID,20.344,VALID,356.0,VALID,0.39,
2019-10-10, 01:24:06,VALID,917.741,VALID,0.0,VALID,98.227,VALID,0.017,VALID,20.325,VALID,357.0,VALID,0.167,
2019-10-10, 01:25:06,VALID,917.726,VALID,0.0,VALID,98.329,VALID,0.027,VALID,20.322,VALID,357.0,VALID,0.144,
2019-10-10, 01:26:06,VALID,917.715,VALID,0.0,VALID,98.485,VALID,0.026,VALID,20.353,INVALID,360.0,VALID,0.03,
2019-10-10, 01:27:06,VALID,917.704,VALID,0.0,VALID,98.506,VALID,0.027,VALID,20.352,INVALID,360.0,VALID,0.578,
2019-10-10, 01:28:06,VALID,917.718,VALID,0.0,VALID,98.444,VALID,0.023,VALID,20.327,VALID,24.0,VALID,1.222,
2019-10-10, 01:29:06,VALID,917.711,VALID,0.0,VALID,98.579,VALID,0.015,VALID,20.338,VALID,6.0,VALID,0.739,
2019-10-10, 01:30:06,VALID,917.736,VALID,0.0,VALID,98.653,VALID,0.027,VALID,20.334,VALID,358.0,VALID,0.416,
2019-10-10, 01:31:06,VALID,917.752,VALID,0.0,VALID,98.669,VALID,0.013,VALID,20.316,VALID,3.0,VALID,0.157,
2019-10-10, 01:32:06,VALID,917.739,VALID,0.0,VALID,98.709,VALID,0.013,VALID,20.3,VALID,352.0,VALID,0.595,
2019-10-10, 01:33:06,VALID,917.734,VALID,0.0,VALID,98.609,VALID,0.01,VALID,20.261,VALID,339.0,VALID,0.471,
2019-10-10, 01:34:06,VALID,917.719,VALID,0.0,VALID,98.573,VALID,0.015,VALID,20.246,VALID,341.0,VALID,0.397,
2019-10-10, 01:35:07,VALID,917.704,VALID,0.0,VALID,98.54,VALID,0.013,VALID,20.238,VALID,332.0,VALID,0.541,
2019-10-10, 01:36:07,VALID,917.693,VALID,0.0,VALID,98.52,VALID,0.005,VALID,20.236,VALID,346.0,VALID,0.114,
2019-10-10, 01:37:07,VALID,917.685,VALID,0.0,VALID,98.538,VALID,0.015,VALID,20.241,VALID,345.0,VALID,0.0,
2019-10-10, 01:38:07,VALID,917.663,VALID,0.0,VALID,98.561,VALID,0.022,VALID,20.262,VALID,346.0,VALID,0.0,
2019-10-10, 01:39:07,VALID,917.672,VALID,0.0,VALID,98.573,VALID,0.012,VALID,20.287,VALID,346.0,VALID,0.0,
2019-10-10, 01:40:07,VALID,917.66,VALID,0.0,VALID,98.568,VALID,0.021,VALID,20.304,VALID,346.0,VALID,0.0,
2019-10-10, 01:41:07,VALID,917.646,VALID,0.0,VALID,98.467,VALID,0.021,VALID,20.289,INVALID,360.0,VALID,0.029,
2019-10-10, 01:42:07,VALID,917.642,VALID,0.0,VALID,98.415,VALID,0.025,VALID,20.284,INVALID,360.0,VALID,0.0,
2019-10-10, 01:43:07,VALID,917.64,VALID,0.0,VALID,98.361,VALID,0.032,VALID,20.285,INVALID,360.0,VALID,0.0,
2019-10-10, 01:44:07,VALID,917.631,VALID,0.0,VALID,98.318,VALID,0.013,VALID,20.279,INVALID,360.0,VALID,0.0,
2019-10-10, 01:45:07,VALID,917.635,VALID,0.0,VALID,98.274,VALID,0.014,VALID,20.271,INVALID,360.0,VALID,0.0,
2019-10-10, 01:46:07,VALID,917.634,VALID,0.0,VALID,98.334,VALID,0.026,VALID,20.284,INVALID,360.0,VALID,0.0,
2019-10-10, 01:47:07,VALID,917.635,VALID,0.0,VALID,98.22,VALID,0.01,VALID,20.252,VALID,352.0,VALID,0.775,
2019-10-10, 01:48:07,VALID,917.614,VALID,0.0,VALID,98.158,VALID,0.014,VALID,20.248,INVALID,360.0,VALID,0.087,
2019-10-10, 01:49:07,VALID,917.608,VALID,0.0,VALID,98.161,VALID,0.022,VALID,20.263,INVALID,360.0,VALID,0.0,
2019-10-10, 01:50:07,VALID,917.597,VALID,0.0,VALID,98.115,VALID,0.019,VALID,20.269,INVALID,360.0,VALID,0.0,
2019-10-10, 01:51:07,VALID,917.58,VALID,0.0,VALID,98.003,VALID,0.001,VALID,20.252,INVALID,360.0,VALID,0.157,
2019-10-10, 01:52:07,VALID,917.588,VALID,0.0,VALID,97.911,VALID,-0.007,VALID,20.227,VALID,11.0,VALID,0.378,
2019-10-10, 01:53:07,VALID,917.593,VALID,0.0,VALID,97.966,VALID,0.006,VALID,20.217,VALID,18.0,VALID,0.152,
2019-10-10, 01:54:07,VALID,917.595,VALID,0.0,VALID,97.977,VALID,-0.014,VALID,20.213,INVALID,360.0,VALID,0.075,
2019-10-10, 01:55:07,VALID,917.58,VALID,0.0,VALID,98.038,VALID,-0.012,VALID,20.222,VALID,14.0,VALID,0.159,
2019-10-10, 01:56:07,VALID,917.572,VALID,0.0,VALID,97.835,VALID,0.003,VALID,20.171,VALID,14.0,VALID,0.14,
2019-10-10, 01:57:07,VALID,917.566,VALID,0.0,VALID,97.873,VALID,0.005,VALID,20.164,INVALID,360.0,VALID,0.045,
2019-10-10, 01:58:07,VALID,917.583,VALID,0.0,VALID,97.922,VALID,0.01,VALID,20.149,INVALID,360.0,VALID,0.0,
2019-10-10, 01:59:07,VALID,917.596,VALID,0.0,VALID,98.034,VALID,-0.008,VALID,20.147,INVALID,360.0,VALID,0.0,
2019-10-10, 02:00:07,VALID,917.606,VALID,0.0,VALID,98.151,VALID,-0.008,VALID,20.15,INVALID,360.0,VALID,0.0,
2019-10-10, 02:01:07,VALID,917.601,VALID,0.0,VALID,98.321,VALID,0.004,VALID,20.17,INVALID,360.0,VALID,0.0,
2019-10-10, 02:02:07,VALID,917.607,VALID,0.0,VALID,98.428,VALID,0.004,VALID,20.173,INVALID,360.0,VALID,0.0,
2019-10-10, 02:03:07,VALID,917.608,VALID,0.0,VALID,98.526,VALID,0.007,VALID,20.165,INVALID,360.0,VALID,0.0,
2019-10-10, 02:04:07,VALID,917.58,VALID,0.0,VALID,98.643,VALID,0.01,VALID,20.171,INVALID,360.0,VALID,0.0,
2019-10-10, 02:05:07,VALID,917.578,VALID,0.0,VALID,98.678,VALID,0.009,VALID,20.154,INVALID,360.0,VALID,0.0,
2019-10-10, 02:06:07,VALID,917.56,VALID,0.0,VALID,98.666,VALID,0.027,VALID,20.117,INVALID,360.0,VALID,0.0,
2019-10-10, 02:07:07,VALID,917.548,VALID,0.0,VALID,98.694,VALID,0.031,VALID,20.095,INVALID,360.0,VALID,0.399,
2019-10-10, 02:08:07,VALID,917.518,VALID,0.0,VALID,98.685,VALID,0.037,VALID,20.048,VALID,11.0,VALID,0.789,
2019-10-10, 02:09:07,VALID,917.5,VALID,0.0,VALID,98.738,VALID,0.029,VALID,20.038,VALID,11.0,VALID,0.555,
2019-10-10, 02:10:07,VALID,917.489,VALID,0.0,VALID,98.849,VALID,0.039,VALID,20.023,VALID,25.0,VALID,0.531,
2019-10-10, 02:11:07,VALID,917.477,VALID,0.0,VALID,98.886,VALID,0.025,VALID,19.988,VALID,33.0,VALID,0.472,
2019-10-10, 02:12:07,VALID,917.475,VALID,0.0,VALID,98.893,VALID,0.035,VALID,19.955,VALID,31.0,VALID,0.269,
2019-10-10, 02:13:07,VALID,917.457,VALID,0.0,VALID,98.922,VALID,0.027,VALID,19.93,VALID,28.0,VALID,0.325,
2019-10-10, 02:14:07,VALID,917.437,VALID,0.0,VALID,99.008,VALID,0.003,VALID,19.945,VALID,19.0,VALID,0.159,
2019-10-10, 02:15:07,VALID,917.43,VALID,0.0,VALID,99.054,VALID,0.02,VALID,19.957,VALID,4.0,VALID,0.363,
2019-10-10, 02:16:07,VALID,917.41,VALID,0.0,VALID,99.065,VALID,0.018,VALID,19.963,VALID,358.0,VALID,0.372,
2019-10-10, 02:17:07,VALID,917.379,VALID,0.0,VALID,98.994,VALID,0.023,VALID,19.95,VALID,358.0,VALID,0.418,
2019-10-10, 02:18:07,VALID,917.396,VALID,0.0,VALID,98.944,VALID,0.019,VALID,19.94,VALID,358.0,VALID,0.396,
2019-10-10, 02:19:07,VALID,917.395,VALID,0.0,VALID,98.983,VALID,0.051,VALID,19.957,VALID,359.0,VALID,0.123,
2019-10-10, 02:20:07,VALID,917.375,VALID,0.0,VALID,98.945,VALID,0.036,VALID,19.971,INVALID,360.0,VALID,0.018,
2019-10-10, 02:21:07,VALID,917.343,VALID,0.0,VALID,98.955,VALID,-0.008,VALID,20.0,INVALID,360.0,VALID,0.0,
2019-10-10, 02:22:07,VALID,917.321,VALID,0.0,VALID,98.873,VALID,-0.022,VALID,20.01,INVALID,360.0,VALID,0.0,
2019-10-10, 02:23:07,VALID,917.307,VALID,0.0,VALID,98.775,VALID,-0.02,VALID,20.026,INVALID,360.0,VALID,0.0,
2019-10-10, 02:24:07,VALID,917.327,VALID,0.0,VALID,98.704,VALID,-0.029,VALID,20.037,INVALID,360.0,VALID,0.0,
2019-10-10, 02:25:07,VALID,917.308,VALID,0.0,VALID,98.618,VALID,-0.023,VALID,20.043,INVALID,360.0,VALID,0.0,
2019-10-10, 02:26:07,VALID,917.306,VALID,0.0,VALID,98.575,VALID,-0.012,VALID,20.056,INVALID,360.0,VALID,0.0,
2019-10-10, 02:27:07,VALID,917.313,VALID,0.0,VALID,98.518,VALID,-0.025,VALID,20.056,INVALID,360.0,VALID,0.0,
2019-10-10, 02:28:07,VALID,917.289,VALID,0.0,VALID,98.494,VALID,-0.03,VALID,20.064,INVALID,360.0,VALID,0.0,
2019-10-10, 02:29:07,VALID,917.269,VALID,0.0,VALID,98.497,VALID,-0.009,VALID,20.072,INVALID,360.0,VALID,0.0,
2019-10-10, 02:30:07,VALID,917.258,VALID,0.0,VALID,98.494,VALID,0.003,VALID,20.08,VALID,345.0,VALID,0.0,
2019-10-10, 02:31:07,VALID,917.235,VALID,0.0,VALID,98.502,VALID,-0.003,VALID,20.092,VALID,345.0,VALID,0.0,
2019-10-10, 02:32:07,VALID,917.237,VALID,0.0,VALID,98.493,VALID,-0.011,VALID,20.095,VALID,345.0,VALID,0.0,
2019-10-10, 02:33:07,VALID,917.248,VALID,0.0,VALID,98.566,VALID,0.004,VALID,20.122,VALID,345.0,VALID,0.0,
2019-10-10, 02:34:07,VALID,917.226,VALID,0.0,VALID,98.589,VALID,-0.01,VALID,20.159,VALID,345.0,VALID,0.0,
2019-10-10, 02:35:07,VALID,917.22,VALID,0.0,VALID,98.552,VALID,-0.018,VALID,20.182,VALID,345.0,VALID,0.0,
2019-10-10, 02:36:07,VALID,917.208,VALID,0.0,VALID,98.484,VALID,0.011,VALID,20.188,VALID,345.0,VALID,0.0,
2019-10-10, 02:37:07,VALID,917.205,VALID,0.0,VALID,98.426,VALID,-0.005,VALID,20.189,VALID,345.0,VALID,0.0,
2019-10-10, 02:38:07,VALID,917.196,VALID,0.0,VALID,98.389,VALID,-0.002,VALID,20.188,VALID,345.0,VALID,0.0,
2019-10-10, 02:39:07,VALID,917.183,VALID,0.0,VALID,98.249,VALID,-0.007,VALID,20.158,VALID,345.0,VALID,0.0,
2019-10-10, 02:40:07,VALID,917.16,VALID,0.0,VALID,98.144,VALID,-0.034,VALID,20.142,VALID,345.0,VALID,0.0,
2019-10-10, 02:41:07,VALID,917.133,VALID,0.0,VALID,98.107,VALID,-0.023,VALID,20.128,VALID,345.0,VALID,0.0,
2019-10-10, 02:42:07,VALID,917.128,VALID,0.0,VALID,98.143,VALID,-0.008,VALID,20.13,VALID,345.0,VALID,0.0,
2019-10-10, 02:43:07,VALID,917.127,VALID,0.0,VALID,98.155,VALID,-0.012,VALID,20.121,VALID,345.0,VALID,0.0,
2019-10-10, 02:44:07,VALID,917.11,VALID,0.0,VALID,98.068,VALID,-0.022,VALID,20.099,VALID,345.0,VALID,0.0,
2019-10-10, 02:45:07,VALID,917.093,VALID,0.0,VALID,98.075,VALID,-0.012,VALID,20.098,VALID,345.0,VALID,0.0,
2019-10-10, 02:46:07,VALID,917.072,VALID,0.0,VALID,98.098,VALID,-0.011,VALID,20.121,VALID,345.0,VALID,0.0,
2019-10-10, 02:47:07,VALID,917.067,VALID,0.0,VALID,98.085,VALID,-0.019,VALID,20.128,VALID,345.0,VALID,0.0,
2019-10-10, 02:48:07,VALID,917.028,VALID,0.0,VALID,98.023,VALID,-0.017,VALID,20.114,VALID,345.0,VALID,0.0,
2019-10-10, 02:49:07,VALID,917.01,VALID,0.0,VALID,98.048,VALID,-0.014,VALID,20.117,VALID,345.0,VALID,0.0,
2019-10-10, 02:50:07,VALID,917.031,VALID,0.0,VALID,98.084,VALID,-0.007,VALID,20.129,VALID,345.0,VALID,0.0,
2019-10-10, 02:51:07,VALID,917.028,VALID,0.0,VALID,98.122,VALID,-0.025,VALID,20.131,VALID,345.0,VALID,0.0,
2019-10-10, 02:52:07,VALID,917.019,VALID,0.0,VALID,98.15,VALID,-0.027,VALID,20.122,VALID,344.0,VALID,0.0,
2019-10-10, 02:53:07,VALID,917.014,VALID,0.0,VALID,98.158,VALID,-0.016,VALID,20.084,VALID,344.0,VALID,0.0,
2019-10-10, 02:54:07,VALID,917.017,VALID,0.0,VALID,98.187,VALID,-0.021,VALID,20.072,INVALID,360.0,VALID,0.0,
2019-10-10, 02:55:07,VALID,917.041,VALID,0.0,VALID,98.283,VALID,-0.007,VALID,20.098,INVALID,360.0,VALID,0.0,
2019-10-10, 02:56:07,VALID,917.035,VALID,0.0,VALID,98.405,VALID,-0.014,VALID,20.132,VALID,344.0,VALID,0.0,
2019-10-10, 02:57:07,VALID,917.036,VALID,0.0,VALID,98.373,VALID,-0.017,VALID,20.155,INVALID,360.0,VALID,0.0,
2019-10-10, 02:58:07,VALID,917.033,VALID,0.0,VALID,98.301,VALID,-0.02,VALID,20.174,INVALID,360.0,VALID,0.0,
2019-10-10, 02:59:07,VALID,917.046,VALID,0.0,VALID,98.247,VALID,-0.021,VALID,20.198,INVALID,360.0,VALID,0.0,
2019-10-10, 03:00:07,VALID,917.056,VALID,0.0,VALID,98.179,VALID,-0.02,VALID,20.211,INVALID,360.0,VALID,0.0,
2019-10-10, 03:01:07,VALID,917.06,VALID,0.0,VALID,98.08,VALID,-0.018,VALID,20.22,INVALID,360.0,VALID,0.0,
2019-10-10, 03:02:07,VALID,917.056,VALID,0.0,VALID,97.913,VALID,-0.023,VALID,20.195,INVALID,360.0,VALID,0.0,
2019-10-10, 03:03:07,VALID,917.05,VALID,0.0,VALID,97.88,VALID,-0.033,VALID,20.177,INVALID,360.0,VALID,0.0,
2019-10-10, 03:04:07,VALID,917.052,VALID,0.0,VALID,97.907,VALID,-0.027,VALID,20.179,INVALID,360.0,VALID,0.0,
2019-10-10, 03:05:07,VALID,917.041,VALID,0.0,VALID,97.895,VALID,-0.006,VALID,20.162,INVALID,360.0,VALID,0.0,
2019-10-10, 03:06:07,VALID,917.034,VALID,0.0,VALID,97.959,VALID,-0.018,VALID,20.149,INVALID,360.0,VALID,0.0,
2019-10-10, 03:07:07,VALID,917.028,VALID,0.0,VALID,98.01,VALID,-0.013,VALID,20.142,INVALID,360.0,VALID,0.0,
2019-10-10, 03:08:07,VALID,916.991,VALID,0.0,VALID,98.117,VALID,-0.002,VALID,20.142,INVALID,360.0,VALID,0.0,
2019-10-10, 03:09:07,VALID,916.953,VALID,0.0,VALID,98.187,VALID,-0.01,VALID,20.132,VALID,344.0,VALID,0.0,
2019-10-10, 03:10:07,VALID,916.949,VALID,0.0,VALID,98.325,VALID,-0.012,VALID,20.132,VALID,344.0,VALID,0.0,
2019-10-10, 03:11:07,VALID,916.919,VALID,0.0,VALID,98.425,VALID,-0.007,VALID,20.123,INVALID,360.0,VALID,0.0,
2019-10-10, 03:12:07,VALID,916.884,VALID,0.0,VALID,98.51,VALID,-0.006,VALID,20.125,INVALID,360.0,VALID,0.032,
2019-10-10, 03:13:07,VALID,916.877,VALID,0.0,VALID,98.581,VALID,0.007,VALID,20.115,INVALID,360.0,VALID,0.0,
2019-10-10, 03:14:07,VALID,916.88,VALID,0.0,VALID,98.594,VALID,-0.011,VALID,20.102,INVALID,360.0,VALID,0.0,
2019-10-10, 03:15:07,VALID,916.866,VALID,0.0,VALID,98.666,VALID,-0.009,VALID,20.108,INVALID,360.0,VALID,0.0,
2019-10-10, 03:16:07,VALID,916.858,VALID,0.0,VALID,98.801,VALID,0.009,VALID,20.136,INVALID,360.0,VALID,0.0,
2019-10-10, 03:17:07,VALID,916.865,VALID,0.0,VALID,98.793,VALID,-0.019,VALID,20.14,INVALID,360.0,VALID,0.0,
2019-10-10, 03:18:07,VALID,916.866,VALID,0.0,VALID,98.756,VALID,-0.005,VALID,20.113,INVALID,360.0,VALID,0.0,
2019-10-10, 03:19:07,VALID,916.876,VALID,0.0,VALID,98.712,VALID,-0.001,VALID,20.072,INVALID,360.0,VALID,0.0,
2019-10-10, 03:20:07,VALID,916.891,VALID,0.0,VALID,98.725,VALID,0.002,VALID,20.046,INVALID,360.0,VALID,0.0,
2019-10-10, 03:21:07,VALID,916.917,VALID,0.0,VALID,98.689,VALID,0.013,VALID,20.006,INVALID,360.0,VALID,0.0,
2019-10-10, 03:22:07,VALID,916.912,VALID,0.0,VALID,98.648,VALID,0.008,VALID,19.958,INVALID,360.0,VALID,0.0,
2019-10-10, 03:23:07,VALID,916.902,VALID,0.0,VALID,98.648,VALID,0.007,VALID,19.919,INVALID,360.0,VALID,0.0,
2019-10-10, 03:24:07,VALID,916.895,VALID,0.0,VALID,98.718,VALID,0.029,VALID,19.9,INVALID,360.0,VALID,0.0,
2019-10-10, 03:25:07,VALID,916.883,VALID,0.0,VALID,98.775,VALID,0.016,VALID,19.883,INVALID,360.0,VALID,0.0,
2019-10-10, 03:26:07,VALID,916.877,VALID,0.0,VALID,98.863,VALID,0.02,VALID,19.868,INVALID,360.0,VALID,0.0,
2019-10-10, 03:27:07,VALID,916.864,VALID,0.0,VALID,98.906,VALID,0.022,VALID,19.844,INVALID,360.0,VALID,0.0,
2019-10-10, 03:28:07,VALID,916.842,VALID,0.0,VALID,98.955,VALID,0.013,VALID,19.82,INVALID,360.0,VALID,0.0,
2019-10-10, 03:29:07,VALID,916.848,VALID,0.0,VALID,98.996,VALID,0.012,VALID,19.8,INVALID,360.0,VALID,0.0,
2019-10-10, 03:30:07,VALID,916.848,VALID,0.0,VALID,99.046,VALID,0.01,VALID,19.78,INVALID,360.0,VALID,0.0,
2019-10-10, 03:31:07,VALID,916.846,VALID,0.0,VALID,99.014,VALID,0.011,VALID,19.726,INVALID,360.0,VALID,0.0,
2019-10-10, 03:32:07,VALID,916.857,VALID,0.0,VALID,99.069,VALID,0.003,VALID,19.712,INVALID,360.0,VALID,0.0,
2019-10-10, 03:33:07,VALID,916.857,VALID,0.0,VALID,99.135,VALID,-0.003,VALID,19.702,INVALID,360.0,VALID,0.0,
2019-10-10, 03:34:07,VALID,916.855,VALID,0.0,VALID,99.161,VALID,0.014,VALID,19.688,INVALID,360.0,VALID,0.0,
2019-10-10, 03:35:07,VALID,916.874,VALID,0.0,VALID,99.22,VALID,0.016,VALID,19.686,INVALID,360.0,VALID,0.0,
2019-10-10, 03:36:07,VALID,916.845,VALID,0.0,VALID,99.258,VALID,0.036,VALID,19.665,INVALID,360.0,VALID,0.0,
2019-10-10, 03:37:07,VALID,916.825,VALID,0.0,VALID,99.272,VALID,0.04,VALID,19.662,INVALID,360.0,VALID,0.0,
2019-10-10, 03:38:07,VALID,916.833,VALID,0.0,VALID,99.346,VALID,0.052,VALID,19.709,INVALID,360.0,VALID,0.0,